Location: Godiavel Galaoual
(15.2485°N, 12.6604°W)
Time: 09:11:50
(UTC+00:00)

H-2A R/B - Pass Details

Date: 27 February 2020
Orbit: 264 x 32798 km, 28.4° (Epoch: 27 March)

Event Time Altitude Azimuth Distance (km) Brightness Sun altitude
Rises 12:17:58 0° 234° (SW) 17,962 9.0 63.8°
Reaches altitude 10° 12:45:43 10° 228° (SW) 22,301 9.7 65.9°
Drops below altitude 10° 17:36:02 10° 244° (WSW) 34,837 12.5 18.5°
Maximum altitude 20:41:48 42° 331° (NNW) 2,444 4.6 -25.8°
Enters shadow 20:45:14 26° 24° (NNE) 2,079 3.9 -26.6°
